Year,Month,Day,Hour,Minute,Value (Times are PST for temperature in C)
2009,08,06,00,00,13.60
2009,08,06,00,01,13.60
2009,08,06,00,02,13.60
2009,08,06,00,03,13.60
2009,08,06,00,04,13.60
2009,08,06,00,05,13.50
2009,08,06,00,06,13.50
2009,08,06,00,07,13.50
2009,08,06,00,08,13.50
2009,08,06,00,09,13.50
2009,08,06,00,10,13.50
2009,08,06,00,11,13.50
2009,08,06,00,12,13.50
2009,08,06,00,13,13.50
2009,08,06,00,14,13.50
2009,08,06,00,15,13.50
2009,08,06,00,16,13.40
2009,08,06,00,17,13.40
2009,08,06,00,18,13.40
2009,08,06,00,19,13.40
2009,08,06,00,20,13.40
2009,08,06,00,21,13.40
2009,08,06,00,22,13.40
2009,08,06,00,23,13.40
2009,08,06,00,24,13.40
2009,08,06,00,25,13.40
2009,08,06,00,26,13.40
2009,08,06,00,27,13.30
2009,08,06,00,28,13.40
2009,08,06,00,29,13.40
2009,08,06,00,30,13.40
2009,08,06,00,31,13.30
2009,08,06,00,32,13.30
2009,08,06,00,33,13.30
2009,08,06,00,34,13.30
2009,08,06,00,35,13.30
2009,08,06,00,36,13.30
2009,08,06,00,37,13.30
2009,08,06,00,38,13.20
2009,08,06,00,39,13.20
2009,08,06,00,40,13.20
2009,08,06,00,41,13.10
2009,08,06,00,42,13.10
2009,08,06,00,43,13.10
2009,08,06,00,44,13.10
2009,08,06,00,45,13.10
2009,08,06,00,46,13.00
2009,08,06,00,47,13.00
2009,08,06,00,48,13.00
2009,08,06,00,49,13.00
2009,08,06,00,50,12.90
2009,08,06,00,51,12.90
2009,08,06,00,52,12.90
2009,08,06,00,53,12.90
2009,08,06,00,54,12.80
2009,08,06,00,55,12.80
2009,08,06,00,56,12.80
2009,08,06,00,57,12.80
2009,08,06,00,58,12.80
2009,08,06,00,59,12.80
2009,08,06,01,00,12.80
2009,08,06,01,01,12.80
2009,08,06,01,02,12.80
2009,08,06,01,03,12.80
2009,08,06,01,04,12.80
2009,08,06,01,05,12.80
2009,08,06,01,06,12.80
2009,08,06,01,07,12.80
2009,08,06,01,08,12.70
2009,08,06,01,09,12.70
2009,08,06,01,10,12.70
2009,08,06,01,11,12.70
2009,08,06,01,12,12.70
2009,08,06,01,13,12.60
2009,08,06,01,14,12.60
2009,08,06,01,15,12.60
2009,08,06,01,16,12.60
2009,08,06,01,17,12.60
2009,08,06,01,18,12.60
2009,08,06,01,19,12.60
2009,08,06,01,20,12.60
2009,08,06,01,21,12.50
2009,08,06,01,22,12.50
2009,08,06,01,23,12.50
2009,08,06,01,24,12.50
2009,08,06,01,25,12.50
2009,08,06,01,26,12.50
2009,08,06,01,27,12.50
2009,08,06,01,28,12.50
2009,08,06,01,29,12.50
2009,08,06,01,30,12.50
2009,08,06,01,31,12.50
2009,08,06,01,32,12.50
2009,08,06,01,33,12.40
2009,08,06,01,34,12.40
2009,08,06,01,35,12.40
2009,08,06,01,36,12.40
2009,08,06,01,37,12.40
2009,08,06,01,38,12.40
2009,08,06,01,39,12.50
2009,08,06,01,40,12.50
2009,08,06,01,41,12.50
2009,08,06,01,42,12.50
2009,08,06,01,43,12.50
2009,08,06,01,44,12.50
2009,08,06,01,45,12.50
2009,08,06,01,46,12.50
2009,08,06,01,47,12.50
2009,08,06,01,48,12.50
2009,08,06,01,49,12.50
2009,08,06,01,50,12.50
2009,08,06,01,51,12.50
2009,08,06,01,52,12.50
2009,08,06,01,53,12.50
2009,08,06,01,54,12.50
2009,08,06,01,55,12.50
2009,08,06,01,56,12.50
2009,08,06,01,57,12.50
2009,08,06,01,58,12.50
2009,08,06,01,59,12.50
2009,08,06,02,00,12.40
2009,08,06,02,01,12.40
2009,08,06,02,02,12.40
2009,08,06,02,03,12.40
2009,08,06,02,04,12.40
2009,08,06,02,05,12.40
2009,08,06,02,06,12.40
2009,08,06,02,07,12.30
2009,08,06,02,08,12.30
2009,08,06,02,09,12.40
2009,08,06,02,10,12.40
2009,08,06,02,11,12.40
2009,08,06,02,12,12.40
2009,08,06,02,13,12.30
2009,08,06,02,14,12.30
2009,08,06,02,15,12.30
2009,08,06,02,16,12.30
2009,08,06,02,17,12.30
2009,08,06,02,18,12.30
2009,08,06,02,19,12.30
2009,08,06,02,20,12.30
2009,08,06,02,21,12.30
2009,08,06,02,22,12.30
2009,08,06,02,23,12.30
2009,08,06,02,24,12.30
2009,08,06,02,25,12.30
2009,08,06,02,26,12.30
2009,08,06,02,27,12.30
2009,08,06,02,28,12.30
2009,08,06,02,29,12.30
2009,08,06,02,30,12.30
2009,08,06,02,31,12.30
2009,08,06,02,32,12.30
2009,08,06,02,33,12.20
2009,08,06,02,34,12.20
2009,08,06,02,35,12.20
2009,08,06,02,36,12.20
2009,08,06,02,37,12.20
2009,08,06,02,38,12.20
2009,08,06,02,39,12.20
2009,08,06,02,40,12.20
2009,08,06,02,41,12.20
2009,08,06,02,42,12.20
2009,08,06,02,43,12.20
2009,08,06,02,44,12.10
2009,08,06,02,45,12.10
2009,08,06,02,46,12.10
2009,08,06,02,47,12.10
2009,08,06,02,48,12.10
2009,08,06,02,49,12.10
2009,08,06,02,50,12.10
2009,08,06,02,51,12.10
2009,08,06,02,52,12.10
2009,08,06,02,53,12.10
2009,08,06,02,54,12.00
2009,08,06,02,55,12.00
2009,08,06,02,56,12.00
2009,08,06,02,57,12.00
2009,08,06,02,58,11.90
2009,08,06,02,59,11.90
2009,08,06,03,00,11.90
2009,08,06,03,01,11.90
2009,08,06,03,02,12.00
2009,08,06,03,03,11.90
2009,08,06,03,04,11.90
2009,08,06,03,05,11.90
2009,08,06,03,06,11.90
2009,08,06,03,07,11.90
2009,08,06,03,08,11.90
2009,08,06,03,09,11.80
2009,08,06,03,10,11.80
2009,08,06,03,11,11.80
2009,08,06,03,12,11.80
2009,08,06,03,13,11.90
2009,08,06,03,14,11.90
2009,08,06,03,15,11.90
2009,08,06,03,16,11.90
2009,08,06,03,17,11.90
2009,08,06,03,18,11.90
2009,08,06,03,19,11.90
2009,08,06,03,20,11.90
2009,08,06,03,21,11.90
2009,08,06,03,22,11.90
2009,08,06,03,23,11.90
2009,08,06,03,24,11.90
2009,08,06,03,25,11.90
2009,08,06,03,26,11.90
2009,08,06,03,27,11.90
2009,08,06,03,28,11.90
2009,08,06,03,29,11.90
2009,08,06,03,30,11.90
2009,08,06,03,31,11.90
2009,08,06,03,32,11.80
2009,08,06,03,33,11.80
2009,08,06,03,34,11.80
2009,08,06,03,35,11.80
2009,08,06,03,36,11.80
2009,08,06,03,37,11.80
2009,08,06,03,38,11.80
2009,08,06,03,39,11.70
2009,08,06,03,40,11.70
2009,08,06,03,41,11.70
2009,08,06,03,42,11.80
2009,08,06,03,43,11.80
2009,08,06,03,44,11.80
2009,08,06,03,45,11.80
2009,08,06,03,46,11.80
2009,08,06,03,47,11.80
2009,08,06,03,48,11.80
2009,08,06,03,49,11.80
2009,08,06,03,50,11.80
2009,08,06,03,51,11.80
2009,08,06,03,52,11.70
2009,08,06,03,53,11.70
2009,08,06,03,54,11.70
2009,08,06,03,55,11.70
2009,08,06,03,56,11.70
2009,08,06,03,57,11.80
2009,08,06,03,58,11.80
2009,08,06,03,59,11.80
2009,08,06,04,00,11.80
2009,08,06,04,01,11.80
2009,08,06,04,02,11.80
2009,08,06,04,03,11.80
2009,08,06,04,04,11.80
2009,08,06,04,05,11.80
2009,08,06,04,06,11.80
2009,08,06,04,07,11.80
2009,08,06,04,08,11.80
2009,08,06,04,09,11.70
2009,08,06,04,10,11.70
2009,08,06,04,11,11.80
2009,08,06,04,12,11.80
2009,08,06,04,13,11.80
2009,08,06,04,14,11.80
2009,08,06,04,15,11.80
2009,08,06,04,16,11.80
2009,08,06,04,17,11.70
2009,08,06,04,18,11.70
2009,08,06,04,19,11.70
2009,08,06,04,20,11.70
2009,08,06,04,21,11.70
2009,08,06,04,22,11.70
2009,08,06,04,23,11.70
2009,08,06,04,24,11.70
2009,08,06,04,25,11.70
2009,08,06,04,26,11.70
2009,08,06,04,27,11.70
2009,08,06,04,28,11.70
2009,08,06,04,29,11.70
2009,08,06,04,30,11.70
2009,08,06,04,31,11.70
2009,08,06,04,32,11.70
2009,08,06,04,33,11.70
2009,08,06,04,34,11.70
2009,08,06,04,35,11.80
2009,08,06,04,36,11.80
2009,08,06,04,37,11.80
2009,08,06,04,38,11.70
2009,08,06,04,39,11.70
2009,08,06,04,40,11.70
2009,08,06,04,41,11.70
2009,08,06,04,42,11.70
2009,08,06,04,43,11.70
2009,08,06,04,44,11.70
2009,08,06,04,45,11.70
2009,08,06,04,46,11.70
2009,08,06,04,47,11.70
2009,08,06,04,48,11.70
2009,08,06,04,49,11.70
2009,08,06,04,50,11.70
2009,08,06,04,51,11.80
2009,08,06,04,52,11.80
2009,08,06,04,53,11.80
2009,08,06,04,54,11.70
2009,08,06,04,55,11.70
2009,08,06,04,56,11.70
2009,08,06,04,57,11.70
2009,08,06,04,58,11.70
2009,08,06,04,59,11.70
2009,08,06,05,00,11.70
2009,08,06,05,01,11.70
2009,08,06,05,02,11.70
2009,08,06,05,03,11.70
2009,08,06,05,04,11.70
2009,08,06,05,05,11.70
2009,08,06,05,06,11.70
2009,08,06,05,07,11.70
2009,08,06,05,08,11.70
2009,08,06,05,09,11.70
2009,08,06,05,10,11.70
2009,08,06,05,11,11.70
2009,08,06,05,12,11.70
2009,08,06,05,13,11.70
2009,08,06,05,14,11.70
2009,08,06,05,15,11.70
2009,08,06,05,16,11.70
2009,08,06,05,17,11.80
2009,08,06,05,18,11.80
2009,08,06,05,19,11.80
2009,08,06,05,20,11.80
2009,08,06,05,21,11.80
2009,08,06,05,22,11.80
2009,08,06,05,23,11.80
2009,08,06,05,24,11.80
2009,08,06,05,25,11.80
2009,08,06,05,26,11.80
2009,08,06,05,27,11.80
2009,08,06,05,28,11.80
2009,08,06,05,29,11.80
2009,08,06,05,30,11.80
2009,08,06,05,31,11.80
2009,08,06,05,32,11.80
2009,08,06,05,33,11.80
2009,08,06,05,34,11.80
2009,08,06,05,35,11.70
2009,08,06,05,36,11.70
2009,08,06,05,37,11.70
2009,08,06,05,38,11.70
2009,08,06,05,39,11.70
2009,08,06,05,40,11.70
2009,08,06,05,41,11.70
2009,08,06,05,42,11.70
2009,08,06,05,43,11.70
2009,08,06,05,44,11.70
2009,08,06,05,45,11.70
2009,08,06,05,46,11.60
2009,08,06,05,47,11.60
2009,08,06,05,48,11.60
2009,08,06,05,49,11.60
2009,08,06,05,50,11.60
2009,08,06,05,51,11.60
2009,08,06,05,52,11.60
2009,08,06,05,53,11.60
2009,08,06,05,54,11.60
2009,08,06,05,55,11.60
2009,08,06,05,56,11.60
2009,08,06,05,57,11.60
2009,08,06,05,58,11.60
2009,08,06,05,59,11.60
2009,08,06,06,00,11.60
2009,08,06,06,01,11.60
2009,08,06,06,02,11.60
2009,08,06,06,03,11.60
2009,08,06,06,04,11.60
2009,08,06,06,05,11.60
2009,08,06,06,06,11.60
2009,08,06,06,07,11.60
2009,08,06,06,08,11.70
2009,08,06,06,09,11.70
2009,08,06,06,10,11.70
2009,08,06,06,11,11.70
2009,08,06,06,12,11.70
2009,08,06,06,13,11.70
2009,08,06,06,14,11.70
2009,08,06,06,15,11.70
2009,08,06,06,16,11.70
2009,08,06,06,17,11.70
2009,08,06,06,18,11.70
2009,08,06,06,19,11.70
2009,08,06,06,20,11.70
2009,08,06,06,21,11.70
2009,08,06,06,22,11.80
2009,08,06,06,23,11.80
2009,08,06,06,24,11.80
2009,08,06,06,25,11.80
2009,08,06,06,26,11.80
2009,08,06,06,27,11.80
2009,08,06,06,28,11.90
2009,08,06,06,29,11.90
2009,08,06,06,30,11.90
2009,08,06,06,31,11.90
2009,08,06,06,32,12.00
2009,08,06,06,33,12.00
2009,08,06,06,34,12.00
2009,08,06,06,35,12.00
2009,08,06,06,36,12.10
2009,08,06,06,37,12.10
2009,08,06,06,38,12.10
2009,08,06,06,39,12.10
2009,08,06,06,40,12.10
2009,08,06,06,41,12.20
2009,08,06,06,42,12.20
2009,08,06,06,43,12.20
2009,08,06,06,44,12.20
2009,08,06,06,45,12.30
2009,08,06,06,46,12.30
2009,08,06,06,47,12.30
2009,08,06,06,48,12.30
2009,08,06,06,49,12.30
2009,08,06,06,50,12.30
2009,08,06,06,51,12.30
2009,08,06,06,52,12.30
2009,08,06,06,53,12.30
2009,08,06,06,54,12.30
2009,08,06,06,55,12.30
2009,08,06,06,56,12.40
2009,08,06,06,57,12.40
2009,08,06,06,58,12.40
2009,08,06,06,59,12.40
2009,08,06,07,00,12.40
2009,08,06,07,01,12.50
2009,08,06,07,02,12.50
2009,08,06,07,03,12.50
2009,08,06,07,04,12.50
2009,08,06,07,05,12.50
2009,08,06,07,06,12.50
2009,08,06,07,07,12.50
2009,08,06,07,08,12.50
2009,08,06,07,09,12.50
2009,08,06,07,10,12.50
2009,08,06,07,11,12.60
2009,08,06,07,12,12.60
2009,08,06,07,13,12.60
2009,08,06,07,14,12.60
2009,08,06,07,15,12.60
2009,08,06,07,16,12.60
2009,08,06,07,17,12.60
2009,08,06,07,18,12.60
2009,08,06,07,19,12.70
2009,08,06,07,20,12.70
2009,08,06,07,21,12.70
2009,08,06,07,22,12.70
2009,08,06,07,23,12.70
2009,08,06,07,24,12.70
2009,08,06,07,25,12.70
2009,08,06,07,26,12.80
2009,08,06,07,27,12.80
2009,08,06,07,28,12.80
2009,08,06,07,29,12.80
2009,08,06,07,30,12.80
2009,08,06,07,31,12.80
2009,08,06,07,32,12.80
2009,08,06,07,33,12.80
2009,08,06,07,34,12.80
2009,08,06,07,35,12.80
2009,08,06,07,36,12.80
2009,08,06,07,37,12.80
2009,08,06,07,38,12.90
2009,08,06,07,39,12.90
2009,08,06,07,40,12.90
2009,08,06,07,41,12.90
2009,08,06,07,42,12.90
2009,08,06,07,43,12.90
2009,08,06,07,44,12.90
2009,08,06,07,45,12.90
2009,08,06,07,46,12.90
2009,08,06,07,47,12.90
2009,08,06,07,48,12.90
2009,08,06,07,49,12.80
2009,08,06,07,50,12.80
2009,08,06,07,51,12.80
2009,08,06,07,52,12.80
2009,08,06,07,53,12.80
2009,08,06,07,54,12.80
2009,08,06,07,55,12.80
2009,08,06,07,56,12.80
2009,08,06,07,57,12.80
2009,08,06,07,58,12.80
2009,08,06,07,59,12.80
2009,08,06,08,00,12.80
2009,08,06,08,01,12.80
2009,08,06,08,02,12.80
2009,08,06,08,03,12.80
2009,08,06,08,04,12.80
2009,08,06,08,05,12.80
2009,08,06,08,06,12.80
2009,08,06,08,07,12.80
2009,08,06,08,08,12.80
2009,08,06,08,09,12.80
2009,08,06,08,10,12.80
2009,08,06,08,11,12.80
2009,08,06,08,12,12.80
2009,08,06,08,13,12.80
2009,08,06,08,14,12.70
2009,08,06,08,15,12.70
2009,08,06,08,16,12.70
2009,08,06,08,17,12.70
2009,08,06,08,18,12.70
2009,08,06,08,19,12.70
2009,08,06,08,20,12.70
2009,08,06,08,21,12.70
2009,08,06,08,22,12.70
2009,08,06,08,23,12.70
2009,08,06,08,24,12.70
2009,08,06,08,25,12.70
2009,08,06,08,26,12.70
2009,08,06,08,27,12.80
2009,08,06,08,28,12.70
2009,08,06,08,29,12.80
2009,08,06,08,30,12.80
2009,08,06,08,31,12.80
2009,08,06,08,32,12.80
2009,08,06,08,33,12.80
2009,08,06,08,34,12.80
2009,08,06,08,35,12.80
2009,08,06,08,36,12.80
2009,08,06,08,37,12.80
2009,08,06,08,38,12.80
2009,08,06,08,39,12.80
2009,08,06,08,40,12.80
2009,08,06,08,41,12.80
2009,08,06,08,42,12.90
2009,08,06,08,43,12.90
2009,08,06,08,44,12.90
2009,08,06,08,45,12.90
2009,08,06,08,46,12.90
2009,08,06,08,47,13.00
2009,08,06,08,48,13.00
2009,08,06,08,49,13.00
2009,08,06,08,50,13.00
2009,08,06,08,51,13.00
2009,08,06,08,52,13.00
2009,08,06,08,53,13.00
2009,08,06,08,54,13.00
2009,08,06,08,55,13.00
2009,08,06,08,56,13.10
2009,08,06,08,57,13.10
2009,08,06,08,58,13.10
2009,08,06,08,59,13.10
2009,08,06,09,00,13.10
2009,08,06,09,01,13.10
2009,08,06,09,02,13.10
2009,08,06,09,03,13.20
2009,08,06,09,04,13.20
2009,08,06,09,05,13.20
2009,08,06,09,06,13.20
2009,08,06,09,07,13.30
2009,08,06,09,08,13.30
2009,08,06,09,09,13.30
2009,08,06,09,10,13.30
2009,08,06,09,11,13.30
2009,08,06,09,12,13.30
2009,08,06,09,13,13.30
2009,08,06,09,14,13.30
2009,08,06,09,15,13.30
2009,08,06,09,16,13.30
2009,08,06,09,17,13.30
2009,08,06,09,18,13.30
2009,08,06,09,19,13.30
2009,08,06,09,20,13.30
2009,08,06,09,21,13.30
2009,08,06,09,22,13.30
2009,08,06,09,23,13.30
2009,08,06,09,24,13.30
2009,08,06,09,25,13.30
2009,08,06,09,26,13.30
2009,08,06,09,27,13.30
2009,08,06,09,28,13.30
2009,08,06,09,29,13.40
2009,08,06,09,30,13.40
2009,08,06,09,31,13.40
2009,08,06,09,32,13.40
2009,08,06,09,33,13.40
2009,08,06,09,34,13.40
2009,08,06,09,35,13.50
2009,08,06,09,36,13.50
2009,08,06,09,37,13.50
2009,08,06,09,38,13.50
2009,08,06,09,39,13.50
2009,08,06,09,40,13.50
2009,08,06,09,41,13.60
2009,08,06,09,42,13.60
2009,08,06,09,43,13.60
2009,08,06,09,44,13.60
2009,08,06,09,45,13.60
2009,08,06,09,46,13.60
2009,08,06,09,47,13.60
2009,08,06,09,48,13.70
2009,08,06,09,49,13.70
2009,08,06,09,50,13.70
2009,08,06,09,51,13.70
2009,08,06,09,52,13.70
2009,08,06,09,53,13.70
2009,08,06,09,54,13.70
2009,08,06,09,55,13.70
2009,08,06,09,56,13.70
2009,08,06,09,57,13.70
2009,08,06,09,58,13.70
2009,08,06,09,59,13.70
2009,08,06,10,00,13.70
2009,08,06,10,01,13.70
2009,08,06,10,02,13.70
2009,08,06,10,03,13.70
2009,08,06,10,04,13.70
2009,08,06,10,05,13.70
2009,08,06,10,06,13.80
2009,08,06,10,07,13.80
2009,08,06,10,08,13.80
2009,08,06,10,09,13.80
2009,08,06,10,10,13.80
2009,08,06,10,11,13.80
2009,08,06,10,12,13.80
2009,08,06,10,13,13.80
2009,08,06,10,14,13.90
2009,08,06,10,15,13.90
2009,08,06,10,16,13.90
2009,08,06,10,17,13.90
2009,08,06,10,18,13.90
2009,08,06,10,19,13.90
2009,08,06,10,20,13.90
2009,08,06,10,21,13.90
2009,08,06,10,22,13.80
2009,08,06,10,23,13.80
2009,08,06,10,24,13.80
2009,08,06,10,25,13.80
2009,08,06,10,26,13.80
2009,08,06,10,27,13.80
2009,08,06,10,28,13.80
2009,08,06,10,29,13.80
2009,08,06,10,30,13.80
2009,08,06,10,31,13.90
2009,08,06,10,32,13.90
2009,08,06,10,33,13.90
2009,08,06,10,34,13.90
2009,08,06,10,35,13.90
2009,08,06,10,36,14.00
2009,08,06,10,37,14.00
2009,08,06,10,38,14.00
2009,08,06,10,39,14.00
2009,08,06,10,40,14.00
2009,08,06,10,41,14.10
2009,08,06,10,42,14.10
2009,08,06,10,43,14.20
2009,08,06,10,44,14.20
2009,08,06,10,45,14.20
2009,08,06,10,46,14.20
2009,08,06,10,47,14.20
2009,08,06,10,48,14.20
2009,08,06,10,49,14.20
2009,08,06,10,50,14.20
2009,08,06,10,51,14.20
2009,08,06,10,52,14.20
2009,08,06,10,53,14.20
2009,08,06,10,54,14.20
2009,08,06,10,55,14.20
2009,08,06,10,56,14.20
2009,08,06,10,57,14.30
2009,08,06,10,58,14.30
2009,08,06,10,59,14.40
2009,08,06,11,00,14.40
2009,08,06,11,01,14.40
2009,08,06,11,02,14.50
2009,08,06,11,03,14.60
2009,08,06,11,04,14.60
2009,08,06,11,05,14.70
2009,08,06,11,06,14.80
2009,08,06,11,07,14.80
2009,08,06,11,08,14.80
2009,08,06,11,09,14.80
2009,08,06,11,10,14.80
2009,08,06,11,11,14.90
2009,08,06,11,12,14.90
2009,08,06,11,13,14.90
2009,08,06,11,14,15.00
2009,08,06,11,15,15.00
2009,08,06,11,16,15.00
2009,08,06,11,17,15.10
2009,08,06,11,18,15.10
2009,08,06,11,19,15.20
2009,08,06,11,20,15.20
2009,08,06,11,21,15.20
2009,08,06,11,22,15.20
2009,08,06,11,23,15.20
2009,08,06,11,24,15.10
2009,08,06,11,25,15.10
2009,08,06,11,26,15.10
2009,08,06,11,27,15.20
2009,08,06,11,28,15.20
2009,08,06,11,29,15.30
2009,08,06,11,30,15.20
2009,08,06,11,31,15.10
2009,08,06,11,32,14.90
2009,08,06,11,33,14.70
2009,08,06,11,34,14.60
2009,08,06,11,35,14.50
2009,08,06,11,36,14.40
2009,08,06,11,37,14.40
2009,08,06,11,38,14.40
2009,08,06,11,39,14.40
2009,08,06,11,40,14.30
2009,08,06,11,41,14.20
2009,08,06,11,42,14.10
2009,08,06,11,43,14.00
2009,08,06,11,44,13.90
2009,08,06,11,45,13.80
2009,08,06,11,46,13.80
2009,08,06,11,47,13.80
2009,08,06,11,48,13.80
2009,08,06,11,49,13.80
2009,08,06,11,50,13.80
2009,08,06,11,51,13.90
2009,08,06,11,52,13.90
2009,08,06,11,53,14.00
2009,08,06,11,54,14.00
2009,08,06,11,55,14.00
2009,08,06,11,56,14.10
2009,08,06,11,57,14.20
2009,08,06,11,58,14.20
2009,08,06,11,59,14.20
2009,08,06,12,00,14.20
2009,08,06,12,01,14.20
2009,08,06,12,02,14.20
2009,08,06,12,03,14.30
2009,08,06,12,04,14.30
2009,08,06,12,05,14.30
2009,08,06,12,06,14.20
2009,08,06,12,07,14.20
2009,08,06,12,08,14.10
2009,08,06,12,09,14.10
2009,08,06,12,10,14.10
2009,08,06,12,11,14.10
2009,08,06,12,12,14.20
2009,08,06,12,13,14.30
2009,08,06,12,14,14.50
2009,08,06,12,15,14.60
2009,08,06,12,16,14.70
2009,08,06,12,17,14.80
2009,08,06,12,18,14.90
2009,08,06,12,19,15.00
2009,08,06,12,20,15.10
2009,08,06,12,21,15.30
2009,08,06,12,22,15.30
2009,08,06,12,23,15.30
2009,08,06,12,24,15.30
2009,08,06,12,25,15.30
2009,08,06,12,26,15.40
2009,08,06,12,27,15.40
2009,08,06,12,28,15.50
2009,08,06,12,29,15.60
2009,08,06,12,30,15.70
2009,08,06,12,31,15.70
2009,08,06,12,32,15.70
2009,08,06,12,33,15.80
2009,08,06,12,34,15.80
2009,08,06,12,35,15.80
2009,08,06,12,36,15.80
2009,08,06,12,37,15.80
2009,08,06,12,38,15.90
2009,08,06,12,39,15.90
2009,08,06,12,40,15.90
2009,08,06,12,41,15.90
2009,08,06,12,42,15.90
2009,08,06,12,43,15.90
2009,08,06,12,44,15.90
2009,08,06,12,45,15.90
2009,08,06,12,46,15.80
2009,08,06,12,47,15.70
2009,08,06,12,48,15.70
2009,08,06,12,49,15.70
2009,08,06,12,50,15.70
2009,08,06,12,51,15.80
2009,08,06,12,52,15.90
2009,08,06,12,53,16.00
2009,08,06,12,54,16.20
2009,08,06,12,55,16.30
2009,08,06,12,56,16.30
2009,08,06,12,57,16.40
2009,08,06,12,58,16.50
2009,08,06,12,59,16.60
2009,08,06,13,00,16.80
2009,08,06,13,01,16.90
2009,08,06,13,02,17.00
2009,08,06,13,03,17.00
2009,08,06,13,04,17.00
2009,08,06,13,05,17.10
2009,08,06,13,06,17.20
2009,08,06,13,07,17.20
2009,08,06,13,08,17.30
2009,08,06,13,09,17.40
2009,08,06,13,10,17.30
2009,08,06,13,11,17.40
2009,08,06,13,12,17.50
2009,08,06,13,13,17.70
2009,08,06,13,14,17.90
2009,08,06,13,15,17.90
2009,08,06,13,16,18.10
2009,08,06,13,17,18.10
2009,08,06,13,18,18.10
2009,08,06,13,19,18.10
2009,08,06,13,20,18.20
2009,08,06,13,21,18.20
2009,08,06,13,22,18.30
2009,08,06,13,23,18.40
2009,08,06,13,24,18.40
2009,08,06,13,25,18.40
2009,08,06,13,26,18.50
2009,08,06,13,27,18.50
2009,08,06,13,28,18.40
2009,08,06,13,29,18.50
2009,08,06,13,30,18.60
2009,08,06,13,31,18.60
2009,08,06,13,32,18.70
2009,08,06,13,33,18.70
2009,08,06,13,34,18.70
2009,08,06,13,35,18.80
2009,08,06,13,36,18.80
2009,08,06,13,37,18.70
2009,08,06,13,38,18.60
2009,08,06,13,39,18.40
2009,08,06,13,40,18.40
2009,08,06,13,41,18.30
2009,08,06,13,42,18.30
2009,08,06,13,43,18.20
2009,08,06,13,44,18.20
2009,08,06,13,45,18.20
2009,08,06,13,46,18.20
2009,08,06,13,47,18.20
2009,08,06,13,48,18.20
2009,08,06,13,49,18.20
2009,08,06,13,50,18.30
2009,08,06,13,51,18.40
2009,08,06,13,52,18.40
2009,08,06,13,53,18.50
2009,08,06,13,54,18.60
2009,08,06,13,55,18.70
2009,08,06,13,56,18.60
2009,08,06,13,57,18.60
2009,08,06,13,58,18.60
2009,08,06,13,59,18.50
2009,08,06,14,00,18.40
2009,08,06,14,01,18.40
2009,08,06,14,02,18.40
2009,08,06,14,03,18.50
2009,08,06,14,04,18.50
2009,08,06,14,05,18.40
2009,08,06,14,06,18.40
2009,08,06,14,07,18.50
2009,08,06,14,08,18.50
2009,08,06,14,09,18.60
2009,08,06,14,10,18.60
2009,08,06,14,11,18.50
2009,08,06,14,12,18.40
2009,08,06,14,13,18.40
2009,08,06,14,14,18.50
2009,08,06,14,15,18.60
2009,08,06,14,16,18.80
2009,08,06,14,17,18.90
2009,08,06,14,18,19.00
2009,08,06,14,19,19.00
2009,08,06,14,20,19.00
2009,08,06,14,21,19.10
2009,08,06,14,22,19.10
2009,08,06,14,23,18.90
2009,08,06,14,24,18.90
2009,08,06,14,25,18.90
2009,08,06,14,26,18.90
2009,08,06,14,27,18.90
2009,08,06,14,28,19.10
2009,08,06,14,29,19.10
2009,08,06,14,30,19.20
2009,08,06,14,31,19.40
2009,08,06,14,32,19.40
2009,08,06,14,33,19.40
2009,08,06,14,34,19.40
2009,08,06,14,35,19.40
2009,08,06,14,36,19.60
2009,08,06,14,37,19.60
2009,08,06,14,38,19.70
2009,08,06,14,39,19.80
2009,08,06,14,40,19.80
2009,08,06,14,41,19.90
2009,08,06,14,42,19.90
2009,08,06,14,43,19.90
2009,08,06,14,44,19.80
2009,08,06,14,45,19.70
2009,08,06,14,46,19.60
2009,08,06,14,47,19.60
2009,08,06,14,48,19.50
2009,08,06,14,49,19.50
2009,08,06,14,50,19.50
2009,08,06,14,51,19.40
2009,08,06,14,52,19.30
2009,08,06,14,53,19.30
2009,08,06,14,54,19.30
2009,08,06,14,55,19.30
2009,08,06,14,56,19.30
2009,08,06,14,57,19.20
2009,08,06,14,58,19.10
2009,08,06,14,59,19.10
2009,08,06,15,00,19.10
2009,08,06,15,01,19.10
2009,08,06,15,02,19.10
2009,08,06,15,03,19.20
2009,08,06,15,04,19.30
2009,08,06,15,05,19.40
2009,08,06,15,06,19.50
2009,08,06,15,07,19.50
2009,08,06,15,08,19.40
2009,08,06,15,09,19.30
2009,08,06,15,10,19.30
2009,08,06,15,11,19.30
2009,08,06,15,12,19.30
2009,08,06,15,13,19.30
2009,08,06,15,14,19.30
2009,08,06,15,15,19.40
2009,08,06,15,16,19.40
2009,08,06,15,17,19.30
2009,08,06,15,18,19.20
2009,08,06,15,19,19.30
2009,08,06,15,20,19.40
2009,08,06,15,21,19.60
2009,08,06,15,22,19.70
2009,08,06,15,23,19.90
2009,08,06,15,24,19.90
2009,08,06,15,25,19.80
2009,08,06,15,26,19.70
2009,08,06,15,27,19.70
2009,08,06,15,28,19.80
2009,08,06,15,29,19.90
2009,08,06,15,30,19.90
2009,08,06,15,31,20.00
2009,08,06,15,32,20.10
2009,08,06,15,33,20.10
2009,08,06,15,34,20.10
2009,08,06,15,35,20.10
2009,08,06,15,36,20.10
2009,08,06,15,37,20.20
2009,08,06,15,38,20.20
2009,08,06,15,39,20.20
2009,08,06,15,40,20.30
2009,08,06,15,41,20.30
2009,08,06,15,42,20.20
2009,08,06,15,43,20.20
2009,08,06,15,44,20.20
2009,08,06,15,45,20.10
2009,08,06,15,46,20.00
2009,08,06,15,47,19.90
2009,08,06,15,48,19.90
2009,08,06,15,49,20.00
2009,08,06,15,50,20.10
2009,08,06,15,51,20.20
2009,08,06,15,52,20.20
2009,08,06,15,53,20.20
2009,08,06,15,54,20.20
2009,08,06,15,55,20.20
2009,08,06,15,56,20.20
2009,08,06,15,57,20.20
2009,08,06,15,58,20.20
2009,08,06,15,59,20.00
2009,08,06,16,00,19.90
2009,08,06,16,01,19.70
2009,08,06,16,02,19.50
2009,08,06,16,03,19.40
2009,08,06,16,04,19.30
2009,08,06,16,05,19.20
2009,08,06,16,06,19.20
2009,08,06,16,07,19.20
2009,08,06,16,08,19.20
2009,08,06,16,09,19.20
2009,08,06,16,10,19.30
2009,08,06,16,11,19.20
2009,08,06,16,12,19.20
2009,08,06,16,13,19.20
2009,08,06,16,14,19.20
2009,08,06,16,15,19.30
2009,08,06,16,16,19.40
2009,08,06,16,17,19.40
2009,08,06,16,18,19.30
2009,08,06,16,19,19.40
2009,08,06,16,20,19.30
2009,08,06,16,21,19.10
2009,08,06,16,22,19.10
2009,08,06,16,23,19.10
2009,08,06,16,24,19.10
2009,08,06,16,25,19.20
2009,08,06,16,26,19.20
2009,08,06,16,27,19.20
2009,08,06,16,28,19.10
2009,08,06,16,29,19.10
2009,08,06,16,30,19.20
2009,08,06,16,31,19.30
2009,08,06,16,32,19.40
2009,08,06,16,33,19.50
2009,08,06,16,34,19.50
2009,08,06,16,35,19.60
2009,08,06,16,36,19.50
2009,08,06,16,37,19.50
2009,08,06,16,38,19.40
2009,08,06,16,39,19.30
2009,08,06,16,40,19.30
2009,08,06,16,41,19.30
2009,08,06,16,42,19.10
2009,08,06,16,43,18.90
2009,08,06,16,44,18.90
2009,08,06,16,45,18.70
2009,08,06,16,46,18.70
2009,08,06,16,47,18.70
2009,08,06,16,48,18.80
2009,08,06,16,49,18.90
2009,08,06,16,50,18.90
2009,08,06,16,51,18.90
2009,08,06,16,52,18.90
2009,08,06,16,53,19.00
2009,08,06,16,54,19.00
2009,08,06,16,55,18.90
2009,08,06,16,56,19.00
2009,08,06,16,57,19.10
2009,08,06,16,58,19.10
2009,08,06,16,59,19.10
2009,08,06,17,00,19.10
2009,08,06,17,01,19.00
2009,08,06,17,02,18.90
2009,08,06,17,03,19.10
2009,08,06,17,04,19.10
2009,08,06,17,05,19.10
2009,08,06,17,06,19.00
2009,08,06,17,07,19.00
2009,08,06,17,08,19.10
2009,08,06,17,09,19.00
2009,08,06,17,10,18.90
2009,08,06,17,11,19.00
2009,08,06,17,12,19.10
2009,08,06,17,13,19.10
2009,08,06,17,14,19.10
2009,08,06,17,15,18.90
2009,08,06,17,16,18.90
2009,08,06,17,17,18.90
2009,08,06,17,18,19.00
2009,08,06,17,19,19.10